Time,TemperatureF,DewpointF,PressureIn,WindDirection,WindDirectionDegrees,WindSpeedMPH,WindSpeedGustMPH,Humidity,HourlyPrecipIn,Conditions,Clouds,dailyrainin,SoftwareType,DateUTC
2013-05-06 00:04:00,51.8,42.4,30.12,NE,45,0.0,0.0,70,-99.99,,,0.00,wxRedirect v1.1,2013-05-06 05:04:00,
2013-05-06 00:10:00,51.6,42.6,30.12,NE,45,0.0,0.0,71,-99.99,,,0.00,wxRedirect v1.1,2013-05-06 05:10:00,
2013-05-06 00:15:00,51.6,42.6,30.12,NE,45,0.0,0.0,71,-99.99,,,0.00,wxRedirect v1.1,2013-05-06 05:15:00,
2013-05-06 00:20:00,51.4,42.4,30.12,NE,45,0.0,0.0,71,-99.99,,,0.00,wxRedirect v1.1,2013-05-06 05:20:00,
2013-05-06 00:26:00,51.1,42.1,30.12,NE,45,0.0,0.0,71,-99.99,,,0.00,wxRedirect v1.1,2013-05-06 05:26:00,
2013-05-06 00:31:00,51.1,42.1,30.12,NE,45,0.0,0.0,71,-99.99,,,0.00,wxRedirect v1.1,2013-05-06 05:31:00,
2013-05-06 00:36:00,50.4,41.7,30.11,NE,45,0.0,0.0,72,-99.99,,,0.00,wxRedirect v1.1,2013-05-06 05:36:00,
2013-05-06 00:42:00,50.7,42.0,30.12,NE,45,0.0,0.0,72,-99.99,,,0.00,wxRedirect v1.1,2013-05-06 05:42:00,
2013-05-06 00:47:00,50.5,41.9,30.11,NE,45,0.0,0.0,72,-99.99,,,0.00,wxRedirect v1.1,2013-05-06 05:47:00,
2013-05-06 00:52:00,50.4,41.7,30.11,NE,45,0.0,0.0,72,-99.99,,,0.00,wxRedirect v1.1,2013-05-06 05:52:00,
2013-05-06 00:58:00,50.2,41.5,30.11,NE,45,0.0,0.0,72,-99.99,,,0.00,wxRedirect v1.1,2013-05-06 05:58:00,
2013-05-06 01:03:00,50.0,41.7,30.11,NE,45,0.0,0.0,73,-99.99,,,0.00,wxRedirect v1.1,2013-05-06 06:03:00,
2013-05-06 01:08:00,49.8,41.5,30.11,NE,45,0.0,0.0,73,-99.99,,,0.00,wxRedirect v1.1,2013-05-06 06:08:00,
2013-05-06 01:14:00,49.6,41.3,30.11,NE,45,0.0,0.0,73,-99.99,,,0.00,wxRedirect v1.1,2013-05-06 06:14:00,
2013-05-06 01:19:00,49.6,41.3,30.10,NE,45,0.0,0.0,73,-99.99,,,0.00,wxRedirect v1.1,2013-05-06 06:19:00,
2013-05-06 01:24:00,49.3,40.9,30.11,NE,45,0.0,0.0,73,-99.99,,,0.00,wxRedirect v1.1,2013-05-06 06:24:00,
2013-05-06 01:30:00,49.3,40.9,30.10,NE,45,0.0,0.0,73,-99.99,,,0.00,wxRedirect v1.1,2013-05-06 06:30:00,
2013-05-06 01:35:00,49.1,41.1,30.10,NE,45,0.0,0.0,74,-99.99,,,0.00,wxRedirect v1.1,2013-05-06 06:35:00,
2013-05-06 01:40:00,48.9,40.9,30.10,NE,45,0.0,0.0,74,-99.99,,,0.00,wxRedirect v1.1,2013-05-06 06:40:00,
2013-05-06 01:45:00,48.9,40.9,30.10,NE,45,0.0,0.0,74,-99.99,,,0.00,wxRedirect v1.1,2013-05-06 06:45:00,
2013-05-06 01:51:00,48.9,40.9,30.10,NE,45,0.0,0.0,74,-99.99,,,0.00,wxRedirect v1.1,2013-05-06 06:51:00,
2013-05-06 01:56:00,48.7,40.7,30.10,NE,45,0.0,0.0,74,-99.99,,,0.00,wxRedirect v1.1,2013-05-06 06:56:00,
2013-05-06 02:01:00,48.7,40.7,30.10,NE,45,0.0,0.0,74,-99.99,,,0.00,wxRedirect v1.1,2013-05-06 07:01:00,
2013-05-06 02:07:00,48.4,40.7,30.10,NE,45,0.0,0.0,75,-99.99,,,0.00,wxRedirect v1.1,2013-05-06 07:07:00,
2013-05-06 02:12:00,48.4,40.7,30.10,NE,45,0.0,0.0,75,-99.99,,,0.00,wxRedirect v1.1,2013-05-06 07:12:00,
2013-05-06 02:18:00,48.2,40.6,30.10,NE,45,0.0,0.0,75,-99.99,,,0.00,wxRedirect v1.1,2013-05-06 07:18:00,
2013-05-06 02:23:00,48.4,40.7,30.10,NE,45,0.0,0.0,75,-99.99,,,0.00,wxRedirect v1.1,2013-05-06 07:23:00,
2013-05-06 02:28:00,48.2,40.6,30.10,NE,45,0.0,0.0,75,-99.99,,,0.00,wxRedirect v1.1,2013-05-06 07:28:00,
2013-05-06 02:33:00,48.0,40.4,30.10,NE,45,0.0,0.0,75,-99.99,,,0.00,wxRedirect v1.1,2013-05-06 07:33:00,
2013-05-06 02:39:00,48.0,40.4,30.10,NE,45,0.0,0.0,75,-99.99,,,0.00,wxRedirect v1.1,2013-05-06 07:39:00,
2013-05-06 02:44:00,48.0,40.4,30.10,NE,45,0.0,0.0,75,-99.99,,,0.00,wxRedirect v1.1,2013-05-06 07:44:00,
2013-05-06 02:49:00,47.8,40.2,30.11,NE,45,0.0,0.0,75,-99.99,,,0.00,wxRedirect v1.1,2013-05-06 07:49:00,
2013-05-06 02:54:00,47.8,40.2,30.11,NE,45,0.0,0.0,75,-99.99,,,0.00,wxRedirect v1.1,2013-05-06 07:54:00,
2013-05-06 03:00:00,47.8,40.6,30.11,NE,45,0.0,0.0,76,-99.99,,,0.00,wxRedirect v1.1,2013-05-06 08:00:00,
2013-05-06 03:05:00,47.7,40.4,30.11,NE,45,0.0,0.0,76,-99.99,,,0.00,wxRedirect v1.1,2013-05-06 08:05:00,
2013-05-06 03:10:00,47.5,40.2,30.10,NE,45,0.0,0.0,76,-99.99,,,0.00,wxRedirect v1.1,2013-05-06 08:10:00,
2013-05-06 03:16:00,47.3,40.1,30.10,NE,45,0.0,0.0,76,-99.99,,,0.00,wxRedirect v1.1,2013-05-06 08:16:00,
2013-05-06 03:21:00,47.3,40.1,30.10,NE,45,0.0,0.0,76,-99.99,,,0.00,wxRedirect v1.1,2013-05-06 08:21:00,
2013-05-06 03:26:00,47.1,39.9,30.10,NE,45,0.0,0.0,76,-99.99,,,0.00,wxRedirect v1.1,2013-05-06 08:26:00,
2013-05-06 03:32:00,47.1,39.9,30.10,NE,45,0.0,0.0,76,-99.99,,,0.00,wxRedirect v1.1,2013-05-06 08:32:00,
2013-05-06 03:37:00,46.9,39.8,30.10,NE,45,0.0,0.0,76,-99.99,,,0.00,wxRedirect v1.1,2013-05-06 08:37:00,
2013-05-06 03:42:00,46.8,39.6,30.10,NE,45,0.0,0.0,76,-99.99,,,0.00,wxRedirect v1.1,2013-05-06 08:42:00,
2013-05-06 03:48:00,46.6,39.4,30.10,NE,45,0.0,0.0,76,-99.99,,,0.00,wxRedirect v1.1,2013-05-06 08:48:00,
2013-05-06 03:53:00,46.6,39.4,30.10,NE,45,0.0,0.0,76,-99.99,,,0.00,wxRedirect v1.1,2013-05-06 08:53:00,
2013-05-06 03:58:00,46.2,39.1,30.10,NE,45,0.0,0.0,76,-99.99,,,0.00,wxRedirect v1.1,2013-05-06 08:58:00,
2013-05-06 04:04:00,46.2,39.1,30.10,NE,45,0.0,0.0,76,-99.99,,,0.00,wxRedirect v1.1,2013-05-06 09:04:00,
2013-05-06 04:09:00,46.2,39.4,30.10,NE,45,0.0,0.0,77,-99.99,,,0.00,wxRedirect v1.1,2013-05-06 09:09:00,
2013-05-06 04:14:00,46.0,39.3,30.10,NE,45,0.0,0.0,77,-99.99,,,0.00,wxRedirect v1.1,2013-05-06 09:14:00,
2013-05-06 04:20:00,46.0,39.3,30.10,NE,45,0.0,0.0,77,-99.99,,,0.00,wxRedirect v1.1,2013-05-06 09:20:00,
2013-05-06 04:25:00,45.9,39.1,30.10,NE,45,0.0,0.0,77,-99.99,,,0.00,wxRedirect v1.1,2013-05-06 09:25:00,
2013-05-06 04:30:00,45.7,38.9,30.10,NE,45,0.0,0.0,77,-99.99,,,0.00,wxRedirect v1.1,2013-05-06 09:30:00,
2013-05-06 04:36:00,45.7,38.9,30.11,NE,45,0.0,0.0,77,-99.99,,,0.00,wxRedirect v1.1,2013-05-06 09:36:00,
2013-05-06 04:41:00,45.3,38.5,30.10,NE,45,0.0,0.0,77,-99.99,,,0.00,wxRedirect v1.1,2013-05-06 09:41:00,
2013-05-06 04:46:00,45.0,38.2,30.11,NE,45,0.0,0.0,77,0.00,,,0.00,wxRedirect v1.1,2013-05-06 09:46:00,
2013-05-06 04:52:00,45.1,38.4,30.10,NE,45,0.0,0.0,77,-99.99,,,0.00,wxRedirect v1.1,2013-05-06 09:52:00,
2013-05-06 04:57:00,45.1,38.4,30.10,NE,45,0.0,0.0,77,-99.99,,,0.00,wxRedirect v1.1,2013-05-06 09:57:00,
2013-05-06 05:02:00,45.0,38.2,30.11,NE,45,0.0,0.0,77,-99.99,,,0.00,wxRedirect v1.1,2013-05-06 10:02:00,
2013-05-06 05:08:00,45.0,38.2,30.11,NE,45,0.0,0.0,77,-99.99,,,0.00,wxRedirect v1.1,2013-05-06 10:08:00,
2013-05-06 05:13:00,44.8,38.0,30.11,NE,45,0.0,0.0,77,-99.99,,,0.00,wxRedirect v1.1,2013-05-06 10:13:00,
2013-05-06 05:18:00,44.6,37.8,30.11,NE,45,0.0,0.0,77,-99.99,,,0.00,wxRedirect v1.1,2013-05-06 10:18:00,
2013-05-06 05:24:00,44.6,38.2,30.11,NE,45,0.0,0.0,78,-99.99,,,0.00,wxRedirect v1.1,2013-05-06 10:24:00,
2013-05-06 05:29:00,44.4,38.0,30.11,NE,45,0.0,0.0,78,-99.99,,,0.00,wxRedirect v1.1,2013-05-06 10:29:00,
2013-05-06 05:34:00,44.4,38.0,30.11,NE,45,0.0,0.0,78,-99.99,,,0.00,wxRedirect v1.1,2013-05-06 10:34:00,
2013-05-06 05:40:00,44.4,38.0,30.11,NE,45,0.0,0.0,78,-99.99,,,0.00,wxRedirect v1.1,2013-05-06 10:40:00,
2013-05-06 05:45:00,44.4,38.0,30.11,NE,45,0.0,0.0,78,-99.99,,,0.00,wxRedirect v1.1,2013-05-06 10:45:00,
2013-05-06 05:50:00,44.4,38.0,30.11,NE,45,0.0,0.0,78,-99.99,,,0.00,wxRedirect v1.1,2013-05-06 10:50:00,
2013-05-06 05:56:00,44.2,37.8,30.11,NE,45,0.0,0.0,78,-99.99,,,0.00,wxRedirect v1.1,2013-05-06 10:56:00,
2013-05-06 06:01:00,44.2,37.8,30.11,NE,45,0.0,0.0,78,-99.99,,,0.00,wxRedirect v1.1,2013-05-06 11:01:00,
2013-05-06 06:06:00,44.1,37.6,30.11,NE,45,0.0,0.0,78,-99.99,,,0.00,wxRedirect v1.1,2013-05-06 11:06:00,
2013-05-06 06:12:00,43.9,37.4,30.11,NE,45,0.0,0.0,78,-99.99,,,0.00,wxRedirect v1.1,2013-05-06 11:12:00,
2013-05-06 06:17:00,43.9,37.4,30.11,NE,45,0.0,0.0,78,-99.99,,,0.00,wxRedirect v1.1,2013-05-06 11:17:00,
2013-05-06 06:22:00,43.9,37.4,30.12,NE,45,0.0,0.0,78,-99.99,,,0.00,wxRedirect v1.1,2013-05-06 11:22:00,
2013-05-06 06:28:00,43.7,37.3,30.12,NE,45,0.0,0.0,78,-99.99,,,0.00,wxRedirect v1.1,2013-05-06 11:28:00,
2013-05-06 06:33:00,43.7,37.3,30.12,NE,45,0.0,0.0,78,-99.99,,,0.00,wxRedirect v1.1,2013-05-06 11:33:00,
2013-05-06 06:38:00,43.5,37.1,30.12,NE,45,0.0,0.0,78,-99.99,,,0.00,wxRedirect v1.1,2013-05-06 11:38:00,
2013-05-06 06:44:00,43.7,37.6,30.12,NE,45,0.0,0.0,79,-99.99,,,0.00,wxRedirect v1.1,2013-05-06 11:44:00,
2013-05-06 06:49:00,43.7,37.6,30.12,NE,45,0.0,0.0,79,-99.99,,,0.00,wxRedirect v1.1,2013-05-06 11:49:00,
2013-05-06 06:54:00,43.7,37.6,30.12,NE,45,0.0,0.0,79,-99.99,,,0.00,wxRedirect v1.1,2013-05-06 11:54:00,
2013-05-06 07:00:00,43.9,37.8,30.12,NE,45,0.0,0.0,79,-99.99,,,0.00,wxRedirect v1.1,2013-05-06 12:00:00,
2013-05-06 07:05:00,43.9,37.8,30.12,NE,45,0.0,0.0,79,-99.99,,,0.00,wxRedirect v1.1,2013-05-06 12:05:00,
2013-05-06 07:10:00,44.1,38.0,30.12,NNE,22,0.7,0.7,79,-99.99,,,0.00,wxRedirect v1.1,2013-05-06 12:10:00,
2013-05-06 07:16:00,44.2,38.5,30.12,NNE,22,0.0,0.7,80,-99.99,,,0.00,wxRedirect v1.1,2013-05-06 12:16:00,
2013-05-06 07:21:00,44.4,38.7,30.12,NNE,22,0.0,0.7,80,-99.99,,,0.00,wxRedirect v1.1,2013-05-06 12:21:00,
2013-05-06 07:26:00,44.4,38.7,30.12,NNE,22,0.0,0.9,80,-99.99,,,0.00,wxRedirect v1.1,2013-05-06 12:26:00,
2013-05-06 07:32:00,44.4,38.7,30.13,NNE,22,0.0,0.9,80,-99.99,,,0.00,wxRedirect v1.1,2013-05-06 12:32:00,
2013-05-06 07:37:00,45.0,39.2,30.13,North,0,0.0,2.0,80,-99.99,,,0.00,wxRedirect v1.1,2013-05-06 12:37:00,
2013-05-06 07:42:00,45.1,39.7,30.13,NNE,22,0.9,2.0,81,-99.99,,,0.00,wxRedirect v1.1,2013-05-06 12:42:00,
2013-05-06 07:48:00,45.3,39.9,30.14,NNE,22,0.0,0.9,81,-99.99,,,0.00,wxRedirect v1.1,2013-05-06 12:48:00,
2013-05-06 07:53:00,45.5,40.0,30.14,North,0,0.0,5.1,81,-99.99,,,0.00,wxRedirect v1.1,2013-05-06 12:53:00,
2013-05-06 07:58:00,45.3,39.9,30.14,North,0,0.0,5.1,81,-99.99,,,0.00,wxRedirect v1.1,2013-05-06 12:58:00,
2013-05-06 08:04:00,45.7,40.2,30.14,NNE,22,0.9,1.8,81,-99.99,,,0.00,wxRedirect v1.1,2013-05-06 13:04:00,
2013-05-06 08:09:00,45.9,40.4,30.14,NNE,22,0.0,0.9,81,-99.99,,,0.00,wxRedirect v1.1,2013-05-06 13:09:00,
2013-05-06 08:14:00,46.0,40.6,30.14,NNE,22,0.0,0.0,81,-99.99,,,0.00,wxRedirect v1.1,2013-05-06 13:14:00,
2013-05-06 08:20:00,46.0,40.6,30.14,NNE,22,0.0,1.3,81,-99.99,,,0.00,wxRedirect v1.1,2013-05-06 13:20:00,
2013-05-06 08:25:00,46.2,40.8,30.14,NE,45,0.0,1.3,81,-99.99,,,0.00,wxRedirect v1.1,2013-05-06 13:25:00,
2013-05-06 08:30:00,46.2,40.8,30.15,North,0,1.8,1.8,81,-99.99,,,0.00,wxRedirect v1.1,2013-05-06 13:30:00,
2013-05-06 08:36:00,46.6,41.4,30.15,NNE,22,0.0,4.5,82,-99.99,,,0.00,wxRedirect v1.1,2013-05-06 13:36:00,
2013-05-06 08:41:00,46.9,41.7,30.15,NNE,22,0.0,4.5,82,-99.99,,,0.00,wxRedirect v1.1,2013-05-06 13:41:00,
2013-05-06 08:46:00,46.9,41.7,30.15,NNE,22,0.0,2.0,82,-99.99,,,0.00,wxRedirect v1.1,2013-05-06 13:46:00,
2013-05-06 08:52:00,47.3,42.1,30.15,NNE,22,1.1,2.7,82,-99.99,,,0.00,wxRedirect v1.1,2013-05-06 13:52:00,
2013-05-06 08:57:00,47.3,42.1,30.15,NNE,22,3.4,3.4,82,-99.99,,,0.00,wxRedirect v1.1,2013-05-06 13:57:00,
2013-05-06 09:02:00,47.5,42.5,30.16,NNE,22,3.4,9.6,83,-99.99,,,0.00,wxRedirect v1.1,2013-05-06 14:02:00,
2013-05-06 09:08:00,47.7,42.7,30.16,North,0,7.8,9.6,83,-99.99,,,0.00,wxRedirect v1.1,2013-05-06 14:08:00,
2013-05-06 09:13:00,47.8,42.9,30.16,North,0,2.0,7.8,83,-99.99,,,0.00,wxRedirect v1.1,2013-05-06 14:13:00,
2013-05-06 09:18:00,48.0,43.1,30.15,North,0,7.8,7.8,83,-99.99,,,0.00,wxRedirect v1.1,2013-05-06 14:18:00,
2013-05-06 09:24:00,48.0,43.1,30.15,North,0,2.2,7.8,83,-99.99,,,0.00,wxRedirect v1.1,2013-05-06 14:24:00,
2013-05-06 09:29:00,48.4,43.4,30.15,North,0,3.4,5.8,83,-99.99,,,0.00,wxRedirect v1.1,2013-05-06 14:29:00,
2013-05-06 09:34:00,48.6,43.6,30.16,NNE,22,6.3,8.9,83,-99.99,,,0.00,wxRedirect v1.1,2013-05-06 14:34:00,
2013-05-06 09:40:00,48.2,43.2,30.16,NNE,22,11.9,11.9,83,-99.99,,,0.00,wxRedirect v1.1,2013-05-06 14:40:00,
2013-05-06 09:45:00,48.7,43.8,30.16,North,0,9.4,11.9,83,-99.99,,,0.00,wxRedirect v1.1,2013-05-06 14:45:00,
2013-05-06 09:50:00,48.9,43.9,30.16,North,0,2.5,9.4,83,-99.99,,,0.00,wxRedirect v1.1,2013-05-06 14:50:00,
2013-05-06 09:56:00,49.3,44.3,30.16,North,0,6.7,9.4,83,-99.99,,,0.00,wxRedirect v1.1,2013-05-06 14:56:00,
2013-05-06 10:01:00,49.3,44.3,30.16,North,0,0.0,6.7,83,-99.99,,,0.00,wxRedirect v1.1,2013-05-06 15:01:00,
2013-05-06 10:06:00,49.6,44.3,30.15,North,0,4.3,6.7,82,-99.99,,,0.00,wxRedirect v1.1,2013-05-06 15:06:00,
2013-05-06 10:12:00,49.8,44.5,30.16,North,0,6.5,6.7,82,0.00,,,0.00,wxRedirect v1.1,2013-05-06 15:12:00,
2013-05-06 10:17:00,49.8,44.5,30.16,North,0,0.0,6.5,82,-99.99,,,0.00,wxRedirect v1.1,2013-05-06 15:17:00,
2013-05-06 10:22:00,50.2,44.9,30.16,North,0,5.4,5.4,82,-99.99,,,0.00,wxRedirect v1.1,2013-05-06 15:22:00,
2013-05-06 10:28:00,50.5,45.2,30.15,NE,45,7.2,7.4,82,-99.99,,,0.00,wxRedirect v1.1,2013-05-06 15:28:00,
2013-05-06 10:33:00,50.7,45.4,30.15,NNE,22,1.3,7.4,82,-99.99,,,0.00,wxRedirect v1.1,2013-05-06 15:33:00,
2013-05-06 10:38:00,51.1,45.8,30.15,NNE,22,2.0,7.2,82,-99.99,,,0.00,wxRedirect v1.1,2013-05-06 15:38:00,
2013-05-06 10:44:00,51.4,46.1,30.16,NNW,337,5.1,5.1,82,-99.99,,,0.00,wxRedirect v1.1,2013-05-06 15:44:00,
2013-05-06 10:49:00,51.8,46.2,30.15,NE,45,8.3,8.3,81,-99.99,,,0.00,wxRedirect v1.1,2013-05-06 15:49:00,
2013-05-06 10:54:00,52.0,46.3,30.16,NNE,22,1.1,8.3,81,-99.99,,,0.00,wxRedirect v1.1,2013-05-06 15:54:00,
2013-05-06 11:00:00,52.3,46.7,30.14,NNE,22,0.0,8.3,81,-99.99,,,0.00,wxRedirect v1.1,2013-05-06 16:00:00,
2013-05-06 11:05:00,52.7,46.8,30.14,NNE,22,1.1,5.4,80,-99.99,,,0.00,wxRedirect v1.1,2013-05-06 16:05:00,
2013-05-06 11:10:00,52.9,46.9,30.14,North,0,5.8,8.1,80,-99.99,,,0.00,wxRedirect v1.1,2013-05-06 16:10:00,
2013-05-06 11:16:00,53.6,47.3,30.14,North,0,4.0,9.6,79,-99.99,,,0.00,wxRedirect v1.1,2013-05-06 16:16:00,
2013-05-06 11:21:00,54.0,47.6,30.14,NE,45,7.8,9.6,79,-99.99,,,0.00,wxRedirect v1.1,2013-05-06 16:21:00,
2013-05-06 11:26:00,54.5,47.8,30.14,North,0,3.8,7.8,78,-99.99,,,0.00,wxRedirect v1.1,2013-05-06 16:26:00,
2013-05-06 11:32:00,54.7,47.9,30.14,NNW,337,5.1,7.8,78,-99.99,,,0.00,wxRedirect v1.1,2013-05-06 16:32:00,
2013-05-06 11:37:00,55.2,48.1,30.14,NE,45,5.8,5.8,77,-99.99,,,0.00,wxRedirect v1.1,2013-05-06 16:37:00,
2013-05-06 11:42:00,55.2,48.1,30.14,NE,45,0.7,5.8,77,-99.99,,,0.00,wxRedirect v1.1,2013-05-06 16:42:00,
2013-05-06 11:48:00,55.6,48.1,30.14,NNE,22,5.4,5.8,76,-99.99,,,0.00,wxRedirect v1.1,2013-05-06 16:48:00,
2013-05-06 11:53:00,55.9,48.4,30.14,NNE,22,2.9,5.8,76,-99.99,,,0.00,wxRedirect v1.1,2013-05-06 16:53:00,
2013-05-06 11:58:00,56.1,48.3,30.14,North,0,2.9,11.6,75,-99.99,,,0.00,wxRedirect v1.1,2013-05-06 16:58:00,
2013-05-06 12:04:00,56.3,48.4,30.14,NE,45,0.0,11.6,75,-99.99,,,0.00,wxRedirect v1.1,2013-05-06 17:04:00,
2013-05-06 12:09:00,56.5,48.2,30.14,NE,45,5.4,9.4,74,-99.99,,,0.00,wxRedirect v1.1,2013-05-06 17:09:00,
2013-05-06 12:14:00,56.7,48.4,30.14,NNE,22,11.9,11.9,74,-99.99,,,0.00,wxRedirect v1.1,2013-05-06 17:14:00,
2013-05-06 12:20:00,56.8,48.2,30.13,NNE,22,8.7,11.9,73,-99.99,,,0.00,wxRedirect v1.1,2013-05-06 17:20:00,
2013-05-06 12:25:00,57.0,48.4,30.14,NE,45,9.8,9.8,73,-99.99,,,0.00,wxRedirect v1.1,2013-05-06 17:25:00,
2013-05-06 12:30:00,57.0,48.4,30.13,North,0,4.5,9.8,73,-99.99,,,0.00,wxRedirect v1.1,2013-05-06 17:30:00,
2013-05-06 12:36:00,57.0,48.4,30.13,NNE,22,8.3,8.3,73,-99.99,,,0.00,wxRedirect v1.1,2013-05-06 17:36:00,
2013-05-06 12:41:00,57.4,48.4,30.13,NNE,22,0.0,8.3,72,-99.99,,,0.00,wxRedirect v1.1,2013-05-06 17:41:00,
2013-05-06 12:46:00,57.7,48.7,30.14,NE,45,7.2,7.2,72,-99.99,,,0.00,wxRedirect v1.1,2013-05-06 17:46:00,
2013-05-06 12:52:00,57.9,48.9,30.13,NNE,22,0.0,7.2,72,-99.99,,,0.00,wxRedirect v1.1,2013-05-06 17:52:00,
2013-05-06 12:57:00,58.1,48.7,30.13,NE,45,2.0,4.0,71,-99.99,,,0.00,wxRedirect v1.1,2013-05-06 17:57:00,
2013-05-06 13:02:00,58.3,49.3,30.14,NE,45,0.0,4.3,72,-99.99,,,0.00,wxRedirect v1.1,2013-05-06 18:02:00,
2013-05-06 13:07:00,58.3,49.3,30.13,NE,45,0.0,4.3,76,-99.99,,,0.00,wxRedirect v1.1,2013-05-06 18:07:00,
2013-05-06 13:12:00,58.1,48.7,30.12,NE,45,2.0,5.4,71,-99.99,,,0.00,wxRedirect v1.1,2013-05-06 18:12:00,
2013-05-06 13:18:00,58.8,49.5,30.13,ENE,67,0.0,5.4,71,-99.99,,,0.00,wxRedirect v1.1,2013-05-06 18:18:00,
2013-05-06 13:23:00,58.8,49.1,30.12,North,-999,-999.0,-999.0,70,-99.99,,,0.00,wxRedirect v1.1,2013-05-06 18:23:00,
2013-05-06 13:28:00,59.2,49.5,30.12,NE,45,0.0,8.3,70,-99.99,,,0.00,wxRedirect v1.1,2013-05-06 18:28:00,
2013-05-06 13:33:00,59.5,49.4,30.12,ENE,67,2.0,2.0,69,-99.99,,,0.00,wxRedirect v1.1,2013-05-06 18:33:00,
2013-05-06 13:39:00,59.7,49.6,30.12,North,0,0.0,4.5,69,-99.99,,,0.00,wxRedirect v1.1,2013-05-06 18:39:00,
2013-05-06 13:44:00,59.9,49.8,30.12,NE,45,0.0,4.5,69,-99.99,,,0.00,wxRedirect v1.1,2013-05-06 18:44:00,
2013-05-06 13:49:00,60.4,50.3,30.11,North,0,2.0,4.3,69,-99.99,,,0.00,wxRedirect v1.1,2013-05-06 18:49:00,
2013-05-06 13:55:00,60.6,50.5,30.11,NNW,337,4.3,4.3,69,-99.99,,,0.00,wxRedirect v1.1,2013-05-06 18:55:00,
2013-05-06 14:00:00,61.2,50.6,30.11,NE,45,0.0,4.3,68,-99.99,,,0.00,wxRedirect v1.1,2013-05-06 19:00:00,
2013-05-06 14:05:00,61.7,51.1,30.11,ENE,67,0.0,0.0,68,-99.99,,,0.00,wxRedirect v1.1,2013-05-06 19:05:00,
2013-05-06 14:11:00,62.1,51.0,30.11,NE,45,0.0,0.0,67,-99.99,,,0.00,wxRedirect v1.1,2013-05-06 19:11:00,
2013-05-06 14:16:00,61.5,50.5,30.11,North,0,2.0,2.0,67,-99.99,,,0.00,wxRedirect v1.1,2013-05-06 19:16:00,
2013-05-06 14:21:00,62.2,51.1,30.11,North,0,0.0,2.0,67,-99.99,,,0.00,wxRedirect v1.1,2013-05-06 19:21:00,
2013-05-06 14:27:00,62.8,51.6,30.11,NNE,22,1.8,4.7,67,-99.99,,,0.00,wxRedirect v1.1,2013-05-06 19:27:00,
2013-05-06 14:32:00,63.1,51.5,30.10,NE,45,0.7,4.7,66,-99.99,,,0.00,wxRedirect v1.1,2013-05-06 19:32:00,
2013-05-06 14:38:00,63.3,51.7,30.10,NE,45,0.0,0.7,66,-99.99,,,0.00,wxRedirect v1.1,2013-05-06 19:38:00,
2013-05-06 14:43:00,63.7,52.1,30.10,NE,45,0.0,0.0,66,-99.99,,,0.00,wxRedirect v1.1,2013-05-06 19:43:00,
2013-05-06 14:48:00,63.7,51.7,30.10,ENE,67,0.0,0.0,65,-99.99,,,0.00,wxRedirect v1.1,2013-05-06 19:48:00,
2013-05-06 14:54:00,63.7,51.7,30.09,North,0,0.7,4.0,65,-99.99,,,0.00,wxRedirect v1.1,2013-05-06 19:54:00,
2013-05-06 14:59:00,64.6,52.5,30.09,NNW,337,0.0,4.0,65,-99.99,,,0.00,wxRedirect v1.1,2013-05-06 19:59:00,
2013-05-06 15:04:00,65.1,53.0,30.09,NW,315,0.0,1.8,65,-99.99,,,0.00,wxRedirect v1.1,2013-05-06 20:04:00,
2013-05-06 15:09:00,65.5,52.5,30.09,NNW,337,0.0,1.8,63,-99.99,,,0.00,wxRedirect v1.1,2013-05-06 20:09:00,
2013-05-06 15:15:00,65.7,52.3,30.09,NNE,22,0.0,4.3,62,-99.99,,,0.00,wxRedirect v1.1,2013-05-06 20:15:00,
2013-05-06 15:23:00,65.8,52.4,30.09,NE,45,0.0,0.0,62,-99.99,,,0.00,wxRedirect v1.1,2013-05-06 20:23:00,
2013-05-06 15:28:00,66.0,52.2,30.08,NNW,337,0.0,3.4,61,-99.99,,,0.00,wxRedirect v1.1,2013-05-06 20:28:00,
2013-05-06 15:34:00,66.4,52.6,30.08,NNW,337,0.0,3.4,61,-99.99,,,0.00,wxRedirect v1.1,2013-05-06 20:34:00,
2013-05-06 15:39:00,66.7,52.9,30.07,NW,315,0.0,0.0,61,-99.99,,,0.00,wxRedirect v1.1,2013-05-06 20:39:00,
2013-05-06 15:44:00,66.9,53.0,30.07,NNE,22,1.6,1.6,61,-99.99,,,0.00,wxRedirect v1.1,2013-05-06 20:44:00,
2013-05-06 15:50:00,66.9,53.0,30.07,North,0,0.0,1.8,61,-99.99,,,0.00,wxRedirect v1.1,2013-05-06 20:50:00,
2013-05-06 15:55:00,66.9,52.6,30.07,WSW,247,0.0,1.8,60,-99.99,,,0.00,wxRedirect v1.1,2013-05-06 20:55:00,
2013-05-06 16:00:00,66.9,52.6,30.06,SW,225,0.0,0.0,60,-99.99,,,0.00,wxRedirect v1.1,2013-05-06 21:00:00,
2013-05-06 16:06:00,66.7,52.5,30.07,SSE,157,0.0,3.4,60,-99.99,,,0.00,wxRedirect v1.1,2013-05-06 21:06:00,
2013-05-06 16:11:00,66.7,52.5,30.07,East,90,0.0,3.4,60,-99.99,,,0.00,wxRedirect v1.1,2013-05-06 21:11:00,
2013-05-06 16:16:00,66.7,52.5,30.06,East,90,0.0,0.0,60,-99.99,,,0.00,wxRedirect v1.1,2013-05-06 21:16:00,
2013-05-06 16:21:00,66.9,52.6,30.06,SW,225,0.0,0.0,60,-99.99,,,0.00,wxRedirect v1.1,2013-05-06 21:21:00,
2013-05-06 16:26:00,67.3,52.5,30.06,WSW,247,0.0,0.0,59,-99.99,,,0.00,wxRedirect v1.1,2013-05-06 21:26:00,
2013-05-06 16:32:00,67.6,52.3,30.06,South,180,0.0,2.9,58,-99.99,,,0.00,wxRedirect v1.1,2013-05-06 21:32:00,
2013-05-06 16:37:00,67.6,52.3,30.06,North,0,0.0,2.9,58,-99.99,,,0.00,wxRedirect v1.1,2013-05-06 21:37:00,
2013-05-06 16:42:00,67.6,51.8,30.06,North,0,0.0,1.1,57,-99.99,,,0.00,wxRedirect v1.1,2013-05-06 21:42:00,
2013-05-06 16:48:00,67.8,52.0,30.06,North,0,0.0,0.0,57,-99.99,,,0.00,wxRedirect v1.1,2013-05-06 21:48:00,
2013-05-06 16:53:00,68.0,52.1,30.06,North,0,1.3,1.3,57,-99.99,,,0.00,wxRedirect v1.1,2013-05-06 21:53:00,
2013-05-06 16:58:00,67.6,51.3,30.06,North,0,1.3,1.3,56,-99.99,,,0.00,wxRedirect v1.1,2013-05-06 21:58:00,
2013-05-06 17:04:00,68.2,51.8,30.05,North,0,0.7,1.3,56,-99.99,,,0.00,wxRedirect v1.1,2013-05-06 22:04:00,
2013-05-06 17:09:00,68.5,52.7,30.05,NNE,22,0.0,5.1,57,-99.99,,,0.00,wxRedirect v1.1,2013-05-06 22:09:00,
2013-05-06 17:15:00,68.5,52.2,30.04,NNW,337,0.0,5.1,56,-99.99,,,0.00,wxRedirect v1.1,2013-05-06 22:15:00,
2013-05-06 17:20:00,68.7,52.3,30.05,NNW,337,0.0,0.0,56,-99.99,,,0.00,wxRedirect v1.1,2013-05-06 22:20:00,
2013-05-06 17:26:00,68.9,52.5,30.05,NNE,22,0.0,3.6,56,-99.99,,,0.00,wxRedirect v1.1,2013-05-06 22:26:00,
2013-05-06 17:31:00,68.7,51.9,30.05,NNE,22,3.8,3.8,55,-99.99,,,0.00,wxRedirect v1.1,2013-05-06 22:31:00,
2013-05-06 17:36:00,68.5,52.2,30.04,NNE,22,0.0,3.8,56,-99.99,,,0.00,wxRedirect v1.1,2013-05-06 22:36:00,
2013-05-06 17:42:00,68.7,52.3,30.04,NNE,22,2.9,2.9,56,-99.99,,,0.00,wxRedirect v1.1,2013-05-06 22:42:00,
2013-05-06 17:47:00,68.7,51.9,30.04,North,0,1.3,2.9,55,-99.99,,,0.00,wxRedirect v1.1,2013-05-06 22:47:00,
2013-05-06 17:52:00,68.7,51.9,30.04,North,0,0.0,2.9,55,-99.99,,,0.00,wxRedirect v1.1,2013-05-06 22:52:00,
2013-05-06 17:58:00,68.7,51.9,30.04,NNE,22,0.0,1.3,55,-99.99,,,0.00,wxRedirect v1.1,2013-05-06 22:58:00,
2013-05-06 18:03:00,68.7,51.4,30.04,NNE,22,1.6,1.6,54,-99.99,,,0.00,wxRedirect v1.1,2013-05-06 23:03:00,
2013-05-06 18:08:00,68.4,51.0,30.04,ESE,112,2.9,3.8,54,-99.99,,,0.00,wxRedirect v1.1,2013-05-06 23:08:00,
2013-05-06 18:14:00,68.0,50.7,30.04,East,90,0.0,3.8,54,-99.99,,,0.00,wxRedirect v1.1,2013-05-06 23:14:00,
2013-05-06 18:19:00,67.3,50.5,30.04,East,90,0.0,3.4,55,-99.99,,,0.00,wxRedirect v1.1,2013-05-06 23:19:00,
2013-05-06 18:24:00,67.6,50.8,30.03,East,90,0.0,0.0,55,-99.99,,,0.00,wxRedirect v1.1,2013-05-06 23:24:00,
2013-05-06 18:30:00,67.3,50.5,30.04,NE,45,1.6,1.6,55,-99.99,,,0.00,wxRedirect v1.1,2013-05-06 23:30:00,
2013-05-06 18:35:00,67.3,50.0,30.03,ESE,112,0.0,1.6,54,-99.99,,,0.00,wxRedirect v1.1,2013-05-06 23:35:00,
2013-05-06 18:40:00,67.1,49.9,30.03,NE,45,0.0,2.2,54,-99.99,,,0.00,wxRedirect v1.1,2013-05-06 23:40:00,
2013-05-06 18:46:00,67.1,49.9,30.04,NNE,22,0.0,2.2,54,-99.99,,,0.00,wxRedirect v1.1,2013-05-06 23:46:00,
2013-05-06 18:51:00,66.9,49.7,30.04,ENE,67,0.0,0.0,54,-99.99,,,0.00,wxRedirect v1.1,2013-05-06 23:51:00,
2013-05-06 18:56:00,66.9,49.7,30.04,East,90,0.0,0.0,54,-99.99,,,0.00,wxRedirect v1.1,2013-05-06 23:56:00,
2013-05-06 19:02:00,66.7,49.6,30.03,ENE,67,0.0,0.0,54,-99.99,,,0.00,wxRedirect v1.1,2013-05-07 00:02:00,
2013-05-06 19:07:00,66.7,50.0,30.04,ENE,67,0.0,0.0,55,-99.99,,,0.00,wxRedirect v1.1,2013-05-07 00:07:00,
2013-05-06 19:12:00,66.9,50.2,30.04,ENE,67,0.0,0.0,55,-99.99,,,0.00,wxRedirect v1.1,2013-05-07 00:12:00,
2013-05-06 19:18:00,66.7,50.0,30.04,ENE,67,0.0,0.0,55,-99.99,,,0.00,wxRedirect v1.1,2013-05-07 00:18:00,
2013-05-06 19:23:00,66.4,49.7,30.04,ENE,67,0.0,0.0,55,-99.99,,,0.00,wxRedirect v1.1,2013-05-07 00:23:00,
2013-05-06 19:28:00,66.9,50.2,30.04,ENE,67,0.0,0.0,55,-99.99,,,0.00,wxRedirect v1.1,2013-05-07 00:28:00,
2013-05-06 19:34:00,66.7,50.0,30.04,ENE,67,0.0,0.0,55,-99.99,,,0.00,wxRedirect v1.1,2013-05-07 00:34:00,
2013-05-06 19:39:00,66.7,50.0,30.04,ENE,67,0.0,0.0,55,-99.99,,,0.00,wxRedirect v1.1,2013-05-07 00:39:00,
2013-05-06 19:44:00,66.7,50.0,30.05,ENE,67,0.0,0.0,55,-99.99,,,0.00,wxRedirect v1.1,2013-05-07 00:44:00,
2013-05-06 19:50:00,66.6,49.9,30.05,NE,45,0.0,0.0,55,-99.99,,,0.00,wxRedirect v1.1,2013-05-07 00:50:00,
2013-05-06 19:55:00,66.4,49.7,30.05,NE,45,0.0,0.0,55,-99.99,,,0.00,wxRedirect v1.1,2013-05-07 00:55:00,
2013-05-06 20:00:00,66.4,49.7,30.05,NE,45,0.0,0.0,55,-99.99,,,0.00,wxRedirect v1.1,2013-05-07 01:00:00,
2013-05-06 20:06:00,66.0,49.4,30.05,NE,45,0.0,0.0,55,-99.99,,,0.00,wxRedirect v1.1,2013-05-07 01:06:00,
2013-05-06 20:11:00,66.0,49.4,30.05,NE,45,0.0,0.0,55,-99.99,,,0.00,wxRedirect v1.1,2013-05-07 01:11:00,
2013-05-06 20:16:00,66.0,49.4,30.05,NE,45,0.0,0.0,55,-99.99,,,0.00,wxRedirect v1.1,2013-05-07 01:16:00,
2013-05-06 20:22:00,66.0,49.4,30.04,NE,45,0.0,0.0,55,-99.99,,,0.00,wxRedirect v1.1,2013-05-07 01:22:00,
2013-05-06 20:27:00,65.8,49.7,30.05,NE,45,0.0,0.0,56,-99.99,,,0.00,wxRedirect v1.1,2013-05-07 01:27:00,
2013-05-06 20:32:00,65.7,49.5,30.05,NE,45,0.0,0.0,56,-99.99,,,0.00,wxRedirect v1.1,2013-05-07 01:32:00,
2013-05-06 20:38:00,65.5,49.3,30.05,NE,45,0.0,0.0,56,-99.99,,,0.00,wxRedirect v1.1,2013-05-07 01:38:00,
2013-05-06 20:43:00,64.8,48.6,30.05,NE,45,0.0,0.0,56,-99.99,,,0.00,wxRedirect v1.1,2013-05-07 01:43:00,
2013-05-06 20:48:00,65.1,49.4,30.05,NE,45,0.0,0.0,57,-99.99,,,0.00,wxRedirect v1.1,2013-05-07 01:48:00,
2013-05-06 20:54:00,64.8,49.1,30.05,NE,45,0.0,0.0,57,-99.99,,,0.00,wxRedirect v1.1,2013-05-07 01:54:00,
2013-05-06 20:59:00,64.6,48.9,30.05,NE,45,0.0,0.0,57,-99.99,,,0.00,wxRedirect v1.1,2013-05-07 01:59:00,
2013-05-06 21:04:00,64.0,48.4,30.06,NE,45,0.0,0.0,57,-99.99,,,0.00,wxRedirect v1.1,2013-05-07 02:04:00,
2013-05-06 21:10:00,63.7,48.6,30.06,NE,45,0.0,0.0,58,-99.99,,,0.00,wxRedirect v1.1,2013-05-07 02:10:00,
2013-05-06 21:15:00,63.3,48.2,30.06,NE,45,0.0,0.0,58,-99.99,,,0.00,wxRedirect v1.1,2013-05-07 02:15:00,
2013-05-06 21:20:00,63.0,48.4,30.06,NE,45,0.0,0.0,59,-99.99,,,0.00,wxRedirect v1.1,2013-05-07 02:20:00,
2013-05-06 21:26:00,62.6,48.1,30.06,NE,45,0.0,0.0,59,-99.99,,,0.00,wxRedirect v1.1,2013-05-07 02:26:00,
2013-05-06 21:31:00,62.4,48.4,30.06,NE,45,0.0,0.0,60,-99.99,,,0.00,wxRedirect v1.1,2013-05-07 02:31:00,
2013-05-06 21:36:00,61.7,47.8,30.06,NE,45,0.0,0.0,60,-99.99,,,0.00,wxRedirect v1.1,2013-05-07 02:36:00,
2013-05-06 21:42:00,62.1,48.5,30.06,NE,45,0.0,0.0,61,-99.99,,,0.00,wxRedirect v1.1,2013-05-07 02:42:00,
2013-05-06 21:47:00,61.7,48.2,30.06,NE,45,0.0,0.0,61,-99.99,,,0.00,wxRedirect v1.1,2013-05-07 02:47:00,
2013-05-06 21:52:00,61.5,48.0,30.06,NE,45,0.0,0.0,61,-99.99,,,0.00,wxRedirect v1.1,2013-05-07 02:52:00,
2013-05-06 21:58:00,61.3,48.3,30.06,NE,45,0.0,0.0,62,-99.99,,,0.00,wxRedirect v1.1,2013-05-07 02:58:00,
2013-05-06 22:03:00,61.2,48.1,30.07,NE,45,0.0,0.0,62,-99.99,,,0.00,wxRedirect v1.1,2013-05-07 03:03:00,
2013-05-06 22:08:00,61.0,47.9,30.06,NE,45,0.0,0.0,62,-99.99,,,0.00,wxRedirect v1.1,2013-05-07 03:08:00,
2013-05-06 22:13:00,60.6,47.6,30.06,NE,45,0.0,0.0,62,-99.99,,,0.00,wxRedirect v1.1,2013-05-07 03:13:00,
2013-05-06 22:18:00,60.6,48.0,30.06,NE,45,0.0,0.0,63,-99.99,,,0.00,wxRedirect v1.1,2013-05-07 03:18:00,
2013-05-06 22:24:00,60.4,47.8,30.06,NE,45,0.0,0.0,63,0.00,,,0.00,wxRedirect v1.1,2013-05-07 03:24:00,
2013-05-06 22:29:00,60.1,47.5,30.07,NE,45,0.0,0.0,63,0.00,,,0.00,wxRedirect v1.1,2013-05-07 03:29:00,
2013-05-06 22:34:00,59.9,47.3,30.06,NE,45,0.0,0.0,63,-99.99,,,0.00,wxRedirect v1.1,2013-05-07 03:34:00,
2013-05-06 22:40:00,59.9,47.7,30.06,NE,45,0.0,0.0,64,-99.99,,,0.00,wxRedirect v1.1,2013-05-07 03:40:00,
2013-05-06 22:45:00,59.7,47.5,30.06,NE,45,0.0,0.0,64,-99.99,,,0.00,wxRedirect v1.1,2013-05-07 03:45:00,
2013-05-06 22:50:00,59.5,47.3,30.06,NE,45,0.0,0.0,64,-99.99,,,0.00,wxRedirect v1.1,2013-05-07 03:50:00,
2013-05-06 22:56:00,59.2,47.0,30.06,NE,45,0.0,0.0,64,-99.99,,,0.00,wxRedirect v1.1,2013-05-07 03:56:00,
2013-05-06 23:01:00,59.2,47.0,30.06,NE,45,0.0,0.0,64,-99.99,,,0.00,wxRedirect v1.1,2013-05-07 04:01:00,
2013-05-06 23:02:00,58.8,47.0,30.06,NE,45,0.0,0.0,65,-99.99,,,0.00,wxRedirect v1.1,2013-05-07 04:02:00,
2013-05-06 23:04:00,58.8,47.0,30.06,NE,45,0.0,0.0,65,-99.99,,,0.00,wxRedirect v1.1,2013-05-07 04:04:00,
2013-05-06 23:07:00,58.8,47.0,30.06,NE,45,0.0,0.0,65,-99.99,,,0.00,wxRedirect v1.1,2013-05-07 04:07:00,
2013-05-06 23:12:00,58.8,47.0,30.06,NE,45,0.0,0.0,65,-99.99,,,0.00,wxRedirect v1.1,2013-05-07 04:12:00,
2013-05-06 23:18:00,58.6,46.9,30.06,NE,45,0.0,0.0,65,-99.99,,,0.00,wxRedirect v1.1,2013-05-07 04:18:00,
2013-05-06 23:23:00,58.5,46.7,30.06,NE,45,0.0,0.0,65,-99.99,,,0.00,wxRedirect v1.1,2013-05-07 04:23:00,
2013-05-06 23:28:00,58.3,46.9,30.06,NE,45,0.0,0.0,66,0.00,,,0.00,wxRedirect v1.1,2013-05-07 04:28:00,
2013-05-06 23:34:00,58.1,46.8,30.06,NE,45,0.0,0.0,66,-99.99,,,0.00,wxRedirect v1.1,2013-05-07 04:34:00,
2013-05-06 23:39:00,57.6,46.2,30.06,NE,45,0.0,0.0,66,-99.99,,,0.00,wxRedirect v1.1,2013-05-07 04:39:00,
2013-05-06 23:44:00,57.7,46.4,30.06,NE,45,0.0,0.0,66,-99.99,,,0.00,wxRedirect v1.1,2013-05-07 04:44:00,
2013-05-06 23:50:00,57.4,46.5,30.06,NE,45,0.0,0.0,67,-99.99,,,0.00,wxRedirect v1.1,2013-05-07 04:50:00,
2013-05-06 23:55:00,57.0,46.1,30.06,NE,45,0.0,0.0,67,-99.99,,,0.00,wxRedirect v1.1,2013-05-07 04:55:00,